This demonstration page uses our WeatherBlox Daily Observations layout. Learn more.

Left ArrowRight Arrow

Hourly Observations for August 9, 2022

Temp ( °F °C ) Dew Point ( °F °C ) Humidity (%) Winds ( mph kmh ) Pressure ( in mb ) Visibility ( mi km ) Precip ( " mm )
12:15 am 00:15 Clear 64 17.8 62 16.4 92 92 S 5 7 30.08 1019 10 16 0.00 0.00
12:35 am 00:35 Clear 64 18 62 16.5 91 91 SSE 5 7 30.08 1019 10 16 0.00 0.00
12:55 am 00:55 Clear 64 17.7 61 16.2 91 91 SSE 5 7 30.08 1019 10 16 0.00 0.00
1:15 am 01:15 Clear 64 17.6 61 16 90 90 S 5 7 30.08 1019 10 16 0.00 0.00
1:35 am 01:35 Clear 64 17.5 61 15.9 90 90 SE 5 7 30.07 1018 10 16 0.00 0.00
1:55 am 01:55 Clear 64 17.6 61 16 90 90 S 5 7 30.07 1018 10 16 0.00 0.00
2:15 am 02:15 Clear 62 16.9 60 15.6 92 92 SSE 6 9 30.07 1018 10 16 0.00 0.00
2:35 am 02:35 Clear 62 16.7 60 15.5 93 93 SSE 5 7 30.07 1018 10 16 0.00 0.00
2:55 am 02:55 Clear 63 17.1 61 15.9 93 93 SE 6 9 30.07 1018 10 16 0.00 0.00
3:15 am 03:15 Clear 63 17 60 15.6 91 91 SSE 6 9 30.07 1018 10 16 0.00 0.00
3:35 am 03:35 Clear 63 17.4 61 16 91 91 SE 6 9 30.06 1018 10 16 0.00 0.00
3:55 am 03:55 Clear 63 17.1 61 15.9 93 93 SSE 7 11 30.07 1018 10 16 0.00 0.00
4:15 am 04:15 Clear 62 16.4 60 15.5 94 94 SSE 6 9 30.07 1018 10 16 0.00 0.00
4:35 am 04:35 Clear 62 16.8 61 15.9 94 94 SSE 5 7 30.06 1018 10 16 0.00 0.00
4:55 am 04:55 Clear 60 15.8 59 15.1 96 96 SSE 5 7 30.07 1018 7 11 0.00 0.00
5:15 am 05:15 Clear 60 15.8 59 15.1 96 96 SSE 3 6 30.08 1019 10 16 0.00 0.00
5:35 am 05:35 Clear 60 15.4 58 14.7 96 96 Calm 30.08 1019 10 16 0.00 0.00
5:55 am 05:55 Clear 60 15.6 59 14.9 96 96 S 3 6 30.08 1019 7 11 0.00 0.00
6:15 am 06:15 Clear 60 15.3 58 14.6 96 96 Calm 30.09 1019 7 11 0.00 0.00
6:35 am 06:35 Clear with Mist and Fog 60 15.3 59 14.8 97 97 Calm 30.09 1019 5 8 0.00 0.00
6:55 am 06:55 Sunny 60 15.7 59 15 96 96 Calm 30.10 1019 10 16 0.00 0.00
7:15 am 07:15 Sunny with Mist and Fog 58 14.5 57 14 97 97 Calm 30.11 1020 5 8 0.00 0.00
7:35 am 07:35 Sunny with Mist and Fog 60 15.6 59 15.1 97 97 Calm 30.10 1019 5 8 0.00 0.00
7:55 am 07:55 Sunny 63 17.2 61 16.1 93 93 Calm 30.09 1019 10 16 0.00 0.00
8:15 am 08:15 Sunny 65 18.3 61 16.3 88 88 Calm 30.09 1019 10 16 0.00 0.00
8:35 am 08:35 Sunny 67 19.2 61 16.2 83 83 S 3 6 30.09 1019 10 16 0.00 0.00
8:55 am 08:55 Sunny 68 19.9 61 16.2 79 79 Calm 30.08 1019 10 16 0.00 0.00
9:15 am 09:15 Sunny 69 20.5 62 16.6 78 78 SSE 6 9 30.08 1019 10 16 0.00 0.00
9:35 am 09:35 Sunny 70 21.3 62 16.8 76 76 SSE 7 11 30.07 1018 10 16 0.00 0.00
9:55 am 09:55 Sunny 73 22.5 62 16.9 71 71 S 6 9 30.06 1018 10 16 0.00 0.00
10:15 am 10:15 Sunny 74 23.5 62 16.5 65 65 S 8 13 30.05 1018 10 16 0.00 0.00
10:35 am 10:35 Sunny 76 24.2 62 16.4 62 62 S 7 11 30.05 1018 10 16 0.00 0.00
10:55 am 10:55 Sunny 76 24.6 62 16.5 61 61 S 7 11 30.04 1017 10 16 0.00 0.00
11:15 am 11:15 Sunny 78 25.4 61 16.2 57 57 S 8 13 30.04 1017 10 16 0.00 0.00
11:35 am 11:35 Sunny 79 26.1 62 16.6 56 56 SSE 7 11 30.03 1017 10 16 0.00 0.00
11:55 am 11:55 Sunny 80 26.4 62 16.7 55 55 SSE 9 15 30.03 1017 10 16 0.00 0.00
12:15 pm 12:15 Sunny 81 27.1 62 16.7 53 53 SSE 9 15 30.02 1017 10 16 0.00 0.00
12:35 pm 12:35 Sunny 82 27.6 63 17.1 53 53 SSE 9 15 30.01 1016 10 16 0.00 0.00
12:55 pm 12:55 Sunny 83 28.2 63 17.2 51 51 SE 8 13 30.00 1016 10 16 0.00 0.00
1:15 pm 13:15 Sunny 85 29.2 63 17.4 49 49 SSE 9 15 29.99 1015 10 16 0.00 0.00
1:35 pm 13:35 Sunny 84 29.1 63 17.3 49 49 SE 9 15 29.97 1015 10 16 0.00 0.00
1:55 pm 13:55 Sunny 85 29.3 63 17.2 48 48 S 7 11 29.97 1015 10 16 0.00 0.00
2:15 pm 14:15 Sunny 86 30 63 17.2 46 46 SE 8 13 29.97 1015 10 16 0.00 0.00
2:35 pm 14:35 Sunny 87 30.3 63 17.1 45 45 SE 8 13 29.96 1014 10 16 0.00 0.00
2:55 pm 14:55 Sunny 87 30.8 62 16.9 43 43 SE 8 13 29.95 1014 10 16 0.00 0.00
3:15 pm 15:15 Sunny 89 31.4 62 16.7 41 41 SSE 8 13 29.94 1014 10 16 0.00 0.00
3:35 pm 15:35 Sunny 88 31.3 61 16.3 41 41 SSE 12 19 29.94 1014 10 16 0.00 0.00
3:55 pm 15:55 Sunny 90 32 60 15.8 38 38 SE 9 15 29.92 1013 10 16 0.00 0.00
4:15 pm 16:15 Sunny 89 31.5 61 16.3 40 40 SE 12 19 29.93 1013 10 16 0.00 0.00
4:35 pm 16:35 Sunny 89 31.8 61 16.3 39 39 SSE 9 15 29.92 1013 10 16 0.00 0.00
4:55 pm 16:55 Sunny 89 31.7 61 16.1 39 39 SE 14 22 29.92 1013 10 16 0.00 0.00
5:15 pm 17:15 Sunny 89 31.5 61 16 39 39 SSE 13 20 29.92 1013 10 16 0.00 0.00
5:35 pm 17:35 Sunny 89 31.6 61 15.9 39 39 SSE 14 22 29.92 1013 10 16 0.00 0.00
5:55 pm 17:55 Sunny 88 31.2 59 15.2 38 38 SE 13 20 29.92 1013 10 16 0.00 0.00
6:15 pm 18:15 Sunny 88 31 59 15 38 38 SE 12 19 29.91 1013 10 16 0.00 0.00
6:35 pm 18:35 Sunny 87 30.7 60 15.7 40 40 SSE 13 20 29.91 1013 10 16 0.00 0.00
6:55 pm 18:55 Sunny 87 30.4 61 16.3 43 43 SE 14 22 29.91 1013 10 16 0.00 0.00
7:15 pm 19:15 Sunny 86 29.8 62 16.5 45 45 SSE 13 20 29.91 1013 10 16 0.00 0.00
7:35 pm 19:35 Sunny 85 29.3 61 16.3 45 45 SSE 13 20 29.91 1013 10 16 0.00 0.00
7:55 pm 19:55 Sunny 84 28.7 61 16 46 46 SSE 12 19 29.92 1013 10 16 0.00 0.00
8:15 pm 20:15 Sunny 82 27.5 62 16.9 52 52 SSE 8 13 29.94 1014 10 16 0.00 0.00
8:35 pm 20:35 Sunny 80 26.6 64 18 59 59 SSE 8 13 29.96 1014 10 16 0.00 0.00
8:55 pm 20:55 Clear 76 24.5 65 18.4 69 69 SSE 7 11 29.97 1015 10 16 0.00 0.00
9:15 pm 21:15 Clear 74 23.1 65 18.4 75 75 SSE 7 11 29.99 1016 10 16 0.00 0.00
9:35 pm 21:35 Clear 74 23.2 65 18.5 75 75 SE 6 9 29.99 1016 10 16 0.00 0.00
9:55 pm 21:55 Clear 74 23.5 65 18.5 74 74 SE 6 9 30.00 1016 10 16 0.00 0.00
10:15 pm 22:15 Clear 73 23 65 18.2 74 74 SSE 7 11 30.02 1016 10 16 0.00 0.00
10:35 pm 22:35 Clear 72 22 65 18.3 80 80 SSE 8 13 30.03 1017 10 16 0.00 0.00
10:55 pm 22:55 Clear 71 21.6 64 18 80 80 SSE 7 11 30.04 1017 10 16 0.00 0.00
11:15 pm 23:15 Clear 70 21.1 64 17.5 80 80 SSE 8 13 30.04 1017 7 11 0.00 0.00
11:35 pm 23:35 Clear 71 21.7 63 17.1 75 75 SSE 7 11 30.05 1018 10 16 0.00 0.00
11:55 pm 23:55 Clear 71 21.7 63 17 75 75 SSE 7 11 30.05 1018 10 16 0.00 0.00

Powered by AerisWeather